Airport Information

KYKM - Yakima Air Terminal McAllister Field Airport

KYKM 251953Z VRB05KT 10SM CLR 24/02 A3012 RMK AO2 SLP199 T02440017


  • General Information

  • Coordinates: N 46°34'5"/ W 120°32'38"
  • Location: N/A
  • Surveyed Elevation: 1095 MSL

Operations

Flow Name Active Runways Conditions

Green background denotes normal operations.


Common Frequencies

Callsign Frequency Position Name

More at the Document Center


Charts

Under Construction